Regional Weather Roundup
Issued by NWS

Home | Current Version | Previous Version | Graphics & Text | Print | Product List | Glossary On
Versions: 1 2 3 4 5 6 7 8 9 10 11 12 13 14 15 16 17 18 19 20 21 22 23 24 25 26 27 28 29 30 31 32 33 34 35 36 37 38 39 40 41 42 43 44 45 46 47 48 49 50
602
ASUS43 KLOT 271104
RWRIL

ILLINOIS REGIONAL WEATHER ROUNDUP
NATIONAL WEATHER SERVICE CHICAGO/ROMEOVILLE IL
600 AM CDT SAT MAY 27 2017

NOTE: "FAIR" INDICATES FEW OR NO CLOUDS BELOW 12,000 FEET WITH NO
SIGNIFICANT WEATHER AND/OR OBSTRUCTIONS TO VISIBILITY.

* THESE STATIONS ARE NOT UNDER NWS QUALITY CONTROL. THEY ALSO MAY NOT
  REPORT WEATHER SUCH AS PRECIPITATION OR FOG.

ILZ001-002-007-009-015-016-024-271200-
NORTHWEST ILLINOIS

CITY           SKY/WX    TMP DP  RH WIND       PRES   REMARKS
MOLINE         FOG       58  57  97 CALM      29.90R VSB 1/4
STERLING*      FOG       55  55 100 CALM      29.92R VSB 1/4
SAVANNA*         N/A     50  50 100 N3        29.91R FOG
$$

ILZ003-004-008-010-011-017-018-271200-
NORTH CENTRAL ILLINOIS

CITY           SKY/WX    TMP DP  RH WIND       PRES   REMARKS
ROCKFORD       CLEAR     51  50  96 CALM      29.92R FOG
FREEPORT*      FOG       47  47 100 W3        29.94R VSB<1/4
ROCHELLE*      CLEAR     50  50  99 CALM      29.90R FOG
DE KALB*         N/A     51  51  99 CALM      29.90R FOG
PERU*          CLOUDY    56  55  93 CALM      29.90R FOG
$$

ILZ005-006-012>014-019>023-271200-
NORTHEAST ILLINOIS

CITY           SKY/WX    TMP DP  RH WIND       PRES   REMARKS
CHICAGO-OHARE  MOCLDY    53  50  89 E6        29.88R
CHICAGO-MIDWAY MOCLDY    56  52  86 N6        29.88R
AURORA         CLOUDY    55  54  96 E6        29.89R FOG
LANSING*       CLOUDY    55  54  99 N5        29.89R
JOLIET*        CLOUDY    56  55  98 CALM      29.89R FOG
WAUKEGAN       PTCLDY    49  49 100 CALM      29.88S FOG
DUPAGE AIRPORT CLOUDY    54  54 100 E5        29.88R FOG
KANKAKEE*      FOG       58  58  97 CALM      29.88R VSB 1/2
WHEELING       MOCLDY    52  52 100 VRB3      29.89F
MORRIS*          N/A     54  52  95 CALM      29.88R FOG
ROMEOVILLE*    CLOUDY    55  55 100 E7        29.88R FOG
$$

LMZ740>746-271200-
SOUTHERN LAKE MICHIGAN

STATION/POSITION SKY/WX   TEMP    WIND        PRES    VSBY  WAVE
                          AIR SEA DIR/SP/G                  HT/PER
                          (F)     (DEG/KT/KT) (MB)    (MI)  (FT/S)
SOUTHERN BUOY              47 46  350/  6/  8 1012.1          0
WILMETTE HARBOR            49 51                N/A           1/ 2
HARRISON CRIB              52     350/  9/ 10   N/A
BURNHAM HARBOR             53     340/  7/ 11   N/A
CALUMET HARBOR             52     340/  7/ 10 1011.3
BURNS HARBOR               53      30/  7/  8 1012.2R
MICHIGAN CITY              54      20/ 11/ 12   N/A
MICHIGAN CITY 6N           53 53   20/  8/ 10   N/A           1/ 2
ST. JOSEPH                 57 58   50/  8/ 10 1011.8R         1
$$

ILZ025>027-034>036-040-047-049-050-058-095>099-271200-
WEST-CENTRAL ILLINOIS

CITY           SKY/WX    TMP DP  RH WIND       PRES   REMARKS
QUINCY         FOG       56  56 100 NE6       29.87R VSB<1/4
GALESBURG*     FOG       57  57 100 CALM      29.90R VSB<1/4
MACOMB*        FOG       57  57 100 NE3       29.92R VSB<1/4
JACKSONVILLE*  FOG       58  58  99 N3        29.88R VSB<1/4
PITTSFIELD*      N/A     59  59 100 N5        29.88R FOG
$$

ILZ028>032-037-038-041>044-048-051>054-059>061-271200-
CENTRAL ILLINOIS

CITY           SKY/WX    TMP DP  RH WIND       PRES   REMARKS
PONTIAC        CLOUDY    59  58  97 N6        29.89R FOG
BLOOMINGTON    FOG       59  59 100 N8        29.89R VSB 3/4
DECATUR        FOG       61  61 100 N5        29.87R VSB 1/2
PEORIA         FOG       59  59 100 CALM      29.90R VSB 1/2
LACON*         FOG       57  57 100 CALM      29.90R VSB 1
LINCOLN*       CLOUDY    62  62  99 N3        29.89R FOG
SPRINGFIELD    FOG       62  62 100 N10       29.88R VSB 1/4
TAYLORVILLE    FOG       60  60 100 N5        29.88R VSB 3/4
$$

ILZ033-039-045-046-055>057-062-063-271200-
EAST-CENTRAL ILLINOIS

CITY           SKY/WX    TMP DP  RH WIND       PRES   REMARKS
CHAMPAIGN      CLOUDY    63  61  93 N5        29.87R FOG
RANTOUL*       FOG       63  62  99 W3        29.87R VSB<1/4
MATTOON        FOG       62  62 100 NW3       29.85R VSB 1
PARIS*         FOG       62  62 100 CALM      29.87R VSB 3/4
$$

ILZ079-100>102-271200-
SOUTHWEST ILLINOIS

CITY           SKY/WX    TMP DP  RH WIND       PRES   REMARKS
ALTON          CLEAR     65  63  95 CALM      29.86R
BELLEVILLE     MOCLDY    65  64  96 CALM      29.87R FOG
CAHOKIA*       FOG       64  62  93 CALM      29.86R VSB 1
SPARTA*        CLOUDY    65  65  98 CALM      29.87S FOG
$$

ILZ064>066-069>071-074>076-080>082-084>086-088>090-092>094-271200-
SOUTH-CENTRAL ILLINOIS

CITY           SKY/WX    TMP DP  RH WIND       PRES   REMARKS
CARBONDALE     CLOUDY    67  67 100 CALM      29.86R FOG
CAIRO*         MOCLDY    68  68  99 CALM      29.87R
EFFINGHAM*     FOG       63  63 100 CALM      29.88R VSB 3/4
MARION         CLOUDY    68  68 100 N3        29.86F FOG
MT. VERNON     FOG       65  65 100 CALM      29.87R VSB 1/2
CENTRALIA*     CLOUDY    66  66 100 CALM      29.87R FOG
SALEM*         FOG       67  65  95 S5        29.88R VSB 1
$$

ILZ067-068-072-073-078-083-087-091-271200-
SOUTHEAST ILLINOIS

CITY           SKY/WX    TMP DP  RH WIND       PRES   REMARKS
LAWRENCEVILLE  PTCLDY    67  67 100 NW5       29.85S FOG
FLORA*         CLOUDY    67  66  96 SW3       29.88R FOG
FAIRFIELD*     CLOUDY    67  67 100 CALM      29.87R FOG
HARRISBURG*      N/A     66  66 100 CALM      29.87R FOG
ROBINSON*      CLOUDY    66  65  97 CALM      29.86S FOG
CARMI*         CLOUDY    66  66 100 CALM      29.86R FOG
$$

ABBREVIATIONS USED IN REMARKS
   TC - TEMPERATURE IN CELSIUS
  WCI - WIND CHILL INDEX
   HX - HEAT INDEX
  VSB - VISIBILITY
$$





USA.gov is the U.S. government's official web portal to all federal, state and local government web resources and services.